sat.trackr.live / text

‹ back to catalog

STARLINK-34951

NORAD 65293 · 2025-184W

PAYLOAD ACTIVE UNKNOWN

§ Identity

Operator
Country
US
Launch date
2025-08-22
Launch site
AFWTR
Launch vehicle
Mass (kg)
RCS (m²)

Purposes: comms

External: N2YO · Heavens-Above · Gunter

§ Orbital elements

Epoch: 2026-09-19T09:12:59.446368Z

Period
93.91 min
Inclination
97.2824°
Eccentricity
0.0000907
Mean motion
15.33454840 rev/d
Perigee alt
464.9 km
Apogee alt
466.1 km
Semi-major
6,843.7 km
B*
5.3275e-4
RAAN
310.3706°
Arg perigee
100.8965°
Mean anomaly
259.2379°
Rev number
6,055

§ Raw data

STARLINK-349511 65293U 25184W   26262.38402137  .00017169  00000+0  53275-3 0  99992 65293  97.2824 310.3706 0000907 100.8965 259.2379 15.33454840 60554

JSON: /api/v1/satellites/65293 · /tle

For live sub-satellite position, see the globe view (requires WebGL).

§ Visibility from observer

Set your observer location to see the next 7 days of passes ≥ 10°. The values pass through the URL so the page stays shareable.

No JS? Fill the form by hand. The geolocation button needs JavaScript.